Location: Izdebno
(52.6670°N, 16.2170°E)
Time: 10:47:36
(UTC+02:00)

A-11 Canister half - Pass Details

Date: 28 February 2024
Orbit: 1513 x 1686 km, 47.2° (Epoch: 24 April)

Event Time Altitude Azimuth Distance (km) Brightness Sun altitude
Exits shadow 00:36:14 17° 91° (E) 3,390 10.8 -45.2°
Drops below altitude 10° 00:38:23 10° 83° (E) 3,912 11.2 -45.1°
Sets 00:41:55 0° 74° (ENE) 4,881 11.9 -45.0°
